Météo par heure à Alkino

Ce jour, 23 Octobre, Vendredi

Heure Température Précipitation Vent Pression Humidité
00:00 -4°C° 0 mm 4 m/s 752 mmHg 87%
01:00 -4°C° 0 mm 4 m/s 752 mmHg 89%
02:00 -4°C° 0 mm 3 m/s 752 mmHg 89%
03:00 -4°C° 0 mm 3 m/s 753 mmHg 90%
04:00 -4°C° 0 mm 3 m/s 753 mmHg 87%
05:00 -3°C° 0 mm 2 m/s 753 mmHg 87%
06:00 -3°C° 0 mm 2 m/s 753 mmHg 87%
07:00 -3°C° 0 mm 2 m/s 753 mmHg 86%
08:00 -2°C° 0 mm 2 m/s 753 mmHg 83%
09:00 -2°C° 0 mm 2 m/s 753 mmHg 79%
10:00 0°C° 0 mm 1 m/s 753 mmHg 76%
11:00 -1°C° 0 mm 2 m/s 753 mmHg 72%
12:00 -1°C° 0 mm 2 m/s 753 mmHg 68%
13:00 +1°C° 0 mm 2 m/s 753 mmHg 65%
14:00 +1°C° 0 mm 2 m/s 753 mmHg 65%
15:00 0°C° 0 mm 3 m/s 752 mmHg 65%
16:00 0°C° 0 mm 3 m/s 752 mmHg 66%
17:00 +2°C° 0 mm 6 m/s 745 mmHg 89%
18:00 0°C° 0 mm 5 m/s 748 mmHg 83%
19:00 -2°C° 0 mm 5 m/s 751 mmHg 77%
20:00 -2°C° 0.3 mm 5 m/s 751 mmHg 83%
21:00 -3°C° 0.3 mm 6 m/s 750 mmHg 90%
22:00 -3°C° 0.3 mm 7 m/s 749 mmHg 96%
23:00 -2°C° 0.5 mm 7 m/s 749 mmHg 96%

Demain, 24 Octobre, Samedi

Heure Température Précipitation Vent Pression Humidité
00:00 -2°C° 0.5 mm 7 m/s 748 mmHg 96%
01:00 -1°C° 0.5 mm 7 m/s 747 mmHg 96%
02:00 0°C° 0.5 mm 7 m/s 746 mmHg 95%
03:00 0°C° 0.5 mm 7 m/s 746 mmHg 94%
04:00 0°C° 0.5 mm 7 m/s 745 mmHg 94%
05:00 +2°C° 0.9 mm 7 m/s 744 mmHg 94%
06:00 +2°C° 0.9 mm 6 m/s 743 mmHg 95%
07:00 +2°C° 0.9 mm 6 m/s 742 mmHg 95%
08:00 +3°C° 1.3 mm 6 m/s 742 mmHg 95%
09:00 +3°C° 1.3 mm 6 m/s 742 mmHg 95%
10:00 +4°C° 1.3 mm 6 m/s 741 mmHg 95%
11:00 +5°C° 0.6 mm 5 m/s 741 mmHg 95%
12:00 +5°C° 0.6 mm 4 m/s 741 mmHg 96%
13:00 +6°C° 0.6 mm 4 m/s 740 mmHg 96%
14:00 +6°C° 0.5 mm 4 m/s 741 mmHg 95%
15:00 +7°C° 0.5 mm 3 m/s 741 mmHg 95%
16:00 +7°C° 0.5 mm 3 m/s 741 mmHg 95%
17:00 +7°C° 0 mm 3 m/s 742 mmHg 95%
18:00 +7°C° 0 mm 3 m/s 742 mmHg 94%
19:00 +7°C° 0 mm 2 m/s 743 mmHg 94%
20:00 +7°C° 0 mm 3 m/s 743 mmHg 94%
21:00 +7°C° 0 mm 3 m/s 744 mmHg 94%
22:00 +7°C° 0 mm 3 m/s 744 mmHg 94%
23:00 +7°C° 0 mm 3 m/s 744 mmHg 94%

Après-demain, 25 Octobre, Dimanche

Heure Température Précipitation Vent Pression Humidité
00:00 +7°C° 0 mm 3 m/s 744 mmHg 95%
01:00 +7°C° 0 mm 3 m/s 745 mmHg 95%
02:00 +7°C° 0 mm 3 m/s 745 mmHg 95%
03:00 +5°C° 0 mm 3 m/s 745 mmHg 95%
04:00 +5°C° 0 mm 3 m/s 745 mmHg 95%
05:00 +5°C° 0 mm 3 m/s 745 mmHg 94%
06:00 +5°C° 0 mm 3 m/s 745 mmHg 93%
07:00 +7°C° 0 mm 2 m/s 746 mmHg 92%
08:00 +7°C° 0 mm 2 m/s 746 mmHg 89%
09:00 +7°C° 0 mm 2 m/s 746 mmHg 86%
10:00 +8°C° 0 mm 3 m/s 746 mmHg 84%
11:00 +8°C° 0 mm 2 m/s 746 mmHg 82%
12:00 +9°C° 0 mm 2 m/s 746 mmHg 80%
13:00 +9°C° 0 mm 2 m/s 746 mmHg 79%
14:00 +9°C° 0 mm 2 m/s 745 mmHg 79%
15:00 +9°C° 0 mm 2 m/s 745 mmHg 80%
16:00 +10°C° 0 mm 1 m/s 745 mmHg 80%
17:00 +9°C° 0.2 mm 1 m/s 745 mmHg 84%
18:00 +9°C° 0.2 mm 1 m/s 744 mmHg 87%
19:00 +8°C° 0.2 mm 1 m/s 744 mmHg 90%
20:00 +7°C° 0.7 mm 2 m/s 744 mmHg 91%
21:00 +7°C° 0.7 mm 2 m/s 743 mmHg 93%
22:00 +5°C° 0.7 mm 3 m/s 743 mmHg 94%
23:00 +5°C° 1 mm 4 m/s 742 mmHg 93%

, 26 Octobre, Lundi

Heure Température Précipitation Vent Pression Humidité
00:00 +3°C° 1 mm 5 m/s 742 mmHg 92%
01:00 +3°C° 1 mm 6 m/s 741 mmHg 92%
02:00 +3°C° 0.2 mm 6 m/s 741 mmHg 89%
03:00 +3°C° 0.2 mm 5 m/s 741 mmHg 86%
04:00 +3°C° 0.2 mm 5 m/s 741 mmHg 83%
05:00 +2°C° 0 mm 5 m/s 741 mmHg 85%
06:00 +2°C° 0 mm 6 m/s 742 mmHg 86%
07:00 0°C° 0 mm 7 m/s 742 mmHg 87%
08:00 0°C° 0 mm 7 m/s 743 mmHg 83%
09:00 0°C° 0 mm 7 m/s 743 mmHg 78%
10:00 0°C° 0 mm 7 m/s 743 mmHg 73%
11:00 0°C° 0 mm 7 m/s 743 mmHg 75%
12:00 0°C° 0 mm 7 m/s 744 mmHg 76%
13:00 0°C° 0 mm 8 m/s 744 mmHg 77%
14:00 -1°C° 0.1 mm 8 m/s 744 mmHg 80%
15:00 -1°C° 0.1 mm 8 m/s 745 mmHg 83%
16:00 -2°C° 0.1 mm 8 m/s 745 mmHg 85%
17:00 -1°C° 0.2 mm 8 m/s 746 mmHg 83%
18:00 -1°C° 0.2 mm 9 m/s 746 mmHg 82%
19:00 -1°C° 0.2 mm 9 m/s 747 mmHg 80%
20:00 -1°C° 0 mm 9 m/s 748 mmHg 79%
21:00 -1°C° 0 mm 9 m/s 748 mmHg 79%
22:00 -1°C° 0 mm 9 m/s 749 mmHg 79%
23:00 -1°C° 0 mm 9 m/s 750 mmHg 79%

26 Octobre, Lundi

Heure Température Précipitation Vent Pression Humidité
00:00 +3°C° 1 mm 5 m/s 742 mmHg 92%
01:00 +3°C° 1 mm 6 m/s 741 mmHg 92%
02:00 +3°C° 0.2 mm 6 m/s 741 mmHg 89%
03:00 +3°C° 0.2 mm 5 m/s 741 mmHg 86%
04:00 +3°C° 0.2 mm 5 m/s 741 mmHg 83%
05:00 +2°C° 0 mm 5 m/s 741 mmHg 85%
06:00 +2°C° 0 mm 6 m/s 742 mmHg 86%
07:00 0°C° 0 mm 7 m/s 742 mmHg 87%
08:00 0°C° 0 mm 7 m/s 743 mmHg 83%
09:00 0°C° 0 mm 7 m/s 743 mmHg 78%
10:00 0°C° 0 mm 7 m/s 743 mmHg 73%
11:00 0°C° 0 mm 7 m/s 743 mmHg 75%
12:00 0°C° 0 mm 7 m/s 744 mmHg 76%
13:00 0°C° 0 mm 8 m/s 744 mmHg 77%
14:00 -1°C° 0.1 mm 8 m/s 744 mmHg 80%
15:00 -1°C° 0.1 mm 8 m/s 745 mmHg 83%
16:00 -2°C° 0.1 mm 8 m/s 745 mmHg 85%
17:00 -1°C° 0.2 mm 8 m/s 746 mmHg 83%
18:00 -1°C° 0.2 mm 9 m/s 746 mmHg 82%
19:00 -1°C° 0.2 mm 9 m/s 747 mmHg 80%
20:00 -1°C° 0 mm 9 m/s 748 mmHg 79%
21:00 -1°C° 0 mm 9 m/s 748 mmHg 79%
22:00 -1°C° 0 mm 9 m/s 749 mmHg 79%
23:00 -1°C° 0 mm 9 m/s 750 mmHg 79%

27 Octobre, Mardi

Heure Température Précipitation Vent Pression Humidité
00:00 -1°C° 0 mm 9 m/s 751 mmHg 79%
01:00 -1°C° 0 mm 9 m/s 751 mmHg 79%
02:00 -2°C° 0 mm 8 m/s 752 mmHg 78%
03:00 -2°C° 0 mm 8 m/s 753 mmHg 78%
04:00 -2°C° 0 mm 8 m/s 753 mmHg 77%
05:00 -2°C° 0 mm 7 m/s 754 mmHg 78%
06:00 -3°C° 0 mm 7 m/s 754 mmHg 78%
07:00 -3°C° 0 mm 7 m/s 755 mmHg 78%
08:00 -3°C° 0 mm 7 m/s 755 mmHg 77%
09:00 -3°C° 0 mm 6 m/s 756 mmHg 76%
10:00 -3°C° 0 mm 6 m/s 756 mmHg 75%
11:00 -2°C° 0 mm 6 m/s 757 mmHg 74%
12:00 -1°C° 0 mm 5 m/s 757 mmHg 73%
13:00 0°C° 0 mm 5 m/s 758 mmHg 72%
14:00 0°C° 0 mm 4 m/s 758 mmHg 72%
15:00 0°C° 0 mm 4 m/s 759 mmHg 72%
16:00 0°C° 0 mm 4 m/s 759 mmHg 72%
17:00 0°C° 0 mm 3 m/s 759 mmHg 75%
18:00 0°C° 0 mm 3 m/s 760 mmHg 79%
19:00 -1°C° 0 mm 2 m/s 760 mmHg 82%
20:00 -1°C° 0 mm 2 m/s 760 mmHg 83%
21:00 -1°C° 0 mm 2 m/s 760 mmHg 84%
22:00 -1°C° 0 mm 2 m/s 761 mmHg 85%
23:00 -1°C° 0 mm 2 m/s 761 mmHg 84%

28 Octobre, Mercredi

Heure Température Précipitation Vent Pression Humidité
00:00 -1°C° 0 mm 2 m/s 761 mmHg 84%
01:00 -1°C° 0 mm 2 m/s 761 mmHg 84%
02:00 -1°C° 0 mm 2 m/s 761 mmHg 83%
03:00 -1°C° 0 mm 2 m/s 761 mmHg 82%
04:00 -1°C° 0 mm 2 m/s 761 mmHg 81%
05:00 -1°C° 0 mm 2 m/s 761 mmHg 80%
06:00 -1°C° 0 mm 2 m/s 762 mmHg 78%
07:00 -1°C° 0 mm 2 m/s 762 mmHg 77%
08:00 +1°C° 0 mm 2 m/s 762 mmHg 73%
09:00 0°C° 0 mm 3 m/s 762 mmHg 68%
10:00 +1°C° 0 mm 3 m/s 761 mmHg 63%
11:00 +2°C° 0 mm 3 m/s 761 mmHg 60%
12:00 +3°C° 0 mm 3 m/s 761 mmHg 57%
13:00 +4°C° 0 mm 3 m/s 761 mmHg 54%
14:00 +3°C° 0 mm 3 m/s 761 mmHg 58%
15:00 +3°C° 0 mm 3 m/s 761 mmHg 61%
16:00 +3°C° 0 mm 3 m/s 761 mmHg 64%
17:00 +2°C° 0 mm 3 m/s 761 mmHg 67%
18:00 +1°C° 0 mm 3 m/s 761 mmHg 69%
19:00 0°C° 0 mm 4 m/s 761 mmHg 72%
20:00 0°C° 0 mm 4 m/s 761 mmHg 73%
21:00 0°C° 0 mm 3 m/s 760 mmHg 74%
22:00 0°C° 0 mm 3 m/s 760 mmHg 76%
23:00 0°C° 0 mm 3 m/s 760 mmHg 76%
Voir plus

Nous avons besoin de votre consentement

Meteoprog et ses fournisseurs de services peuvent stocker et accéder à des données personnelles telles que des cookies, des identifiants d'appareils ou d'autres technologies similaires sur votre appareil et traiter ces données pour personnaliser le contenu et les publicités, ainsi que pour fournir des fonctionnalités de médias sociaux et analyser le trafic.

  • Stocker et/ou accéder à des informations sur votre appareil

    Des cookies, des identifiants d'appareils ou d'autres informations peuvent être stockés ou accessibles sur votre appareil aux fins indiquées ci-dessus.

  • Annonces et contenus personnalisés, mesure des annonces et des contenus, connaissance de l'audience et développement de produits

    Les annonces et le contenu peuvent être personnalisés en fonction d'un profil. D'autres données peuvent être ajoutées pour mieux personnaliser les annonces et le contenu. Les performances des publicités et du contenu peuvent être mesurées. Il est possible d'obtenir des informations sur le public qui a vu les publicités et le contenu. Ces données peuvent être utilisées pour développer ou améliorer l'expérience de l'utilisateur, les systèmes et les logiciels.

En cliquant sur "J'accepte", vous autorisez l'utilisation de cookies, des identifiants d'appareils, des balises web ou d'autres technologies similaires. Vos paramètres peuvent être modifiés dans le navigateur de votre appareil.

Dans certains cas, des intérêts légitimes peuvent être invoqués plutôt qu'un consentement. Vous pouvez en savoir plus à ce sujet dans notre Politique de confidentialité et de cookies.